Regional Weather Roundup
Issued by NWS Green Bay, WI

Home | Current Version | Previous Version | Graphics & Text | Print | Product List | Glossary Off
Versions: 1 2 3 4 5 6 7 8 9 10 11 12 13 14 15 16 17 18 19 20 21 22 23 24 25 26 27 28 29 30 31 32 33 34 35 36 37 38 39 40 41 42 43 44 45 46 47 48 49 50

000
ASUS43 KGRB 191559
RWRGRB

NORTH-CENTRAL AND NORTHEAST WISCONSIN REGIONAL WEATHER ROUNDUP
NATIONAL WEATHER SERVICE GREEN BAY WI
1100 AM CDT SAT APR 19 2014

WIZ005-009-010>012-018-019-191700-
NORTH CENTRAL WISCONSIN

CITY           SKY/WX    TMP DP  RH WIND       PRES   REMARKS
IRONWOOD       CLOUDY    41  21  45 SE13G29   30.15R
MANITOWISH WTR NOT AVBL
ARBOR VITAE    NOT AVBL
EAGLE RIVER    NOT AVBL
LAND O LAKES   NOT AVBL
RHINELANDER    SUNNY     40  22  48 SE14G25   30.28F
PHILLIPS       NOT AVBL
ANTIGO         NOT AVBL
TOMAHAWK       NOT AVBL
MERRILL        NOT AVBL
$$

WIZ013-073-191700-
NORTHEAST WISCONSIN

CITY           SKY/WX    TMP DP  RH WIND       PRES   REMARKS
IRON MOUNTAIN  SUNNY     40  26  57 SE13G20   30.35S
MARINETTE      SUNNY     39  30  70 S14G21    30.40F
$$

WIZ017-030-035>037-045-191700-
CENTRAL WISCONSIN

CITY           SKY/WX    TMP DP  RH WIND       PRES   REMARKS
MEDFORD        NOT AVBL
WAUSAU         SUNNY     45  25  45 SE13G24   30.28F
MOSINEE        SUNNY     43  27  52 SE16G22   30.31F
MARSHFIELD     MOSUNNY   46  27  47 S17       30.27F
WISC RAPIDS    MOSUNNY   49  24  37 SE12G20   30.30F
STEVENS POINT  NOT AVBL
WAUPACA        NOT AVBL
SHAWANO        NOT AVBL
CLINTONVILLE   NOT AVBL
$$

WIZ038-039-048-051-191700-
FOX VALLEY

CITY           SKY/WX    TMP DP  RH WIND       PRES   REMARKS
NWS GREEN BAY  SUNNY     44  32  62 SE14      30.38F
APPLETON       MOSUNNY   41  28  60 SE16      30.37F
OSHKOSH        MOSUNNY   45  29  53 SE14      30.35F
FOND DU LAC    MOSUNNY   46  30  53 SE16      30.36F
$$

WIZ022-050-052-191700-
EAST CENTRAL WISCONSIN

CITY           SKY/WX    TMP DP  RH WIND       PRES   REMARKS
STURGEON BAY   SUNNY     39  27  60 S13G22    30.40F
MANITOWOC      NOT AVBL
SHEBOYGAN      PTSUNNY   41  31  67 SE13G18   30.41S
$$

LMZ563-521-522-541>543-191700-
LAKESHORE

STATION/POSITION TIME  TEMP    WIND        PRES    VSBY  WAVE
                       AIR SEA DIR/SP/G                  HT/PER
                 (UTC) (F)     (DEG/KT/KT) (MB)    (MI)  (FT/S)
SHEBOYGAN LKSHOR 1500   35     120/  8/  9 1031.1F
KEWAUNEE LKSHORE 1500   36     130/  7/ 10 1030.3F
TWO RIVERS CG    1500   37                   N/A       6   1
NORTHPORT PIER   1500   33     140/ 12/ 14 1030.1F
SISTER BAY LKSHO 1500   42     150/ 12/ 17   N/A
STURGEON BAY CG  1500   35     120/  9     1031.0      6   1
MENOMINEE LKSHOR 1500   32      10/  3/  3 1030.3F
$$



USA.gov is the U.S. government's official web portal to all federal, state and local government web resources and services.